Location: Crescent
(42.8242°N, 73.7329°W)
Time: 13:07:54
(UTC+00:00)

Transit 4A - Pass Details

Date: 23 February 2026
Orbit: 863 x 978 km, 66.8° (Epoch: 17 March)

Event Time Altitude Azimuth Distance (km) Brightness Sun altitude
Rises 13:30:20 0° 335° (NNW) 3,587 10.5 17.8°
Reaches altitude 10° 13:35:07 10° 8° (N) 2,672 10.1 18.5°
Maximum altitude 13:37:03 11° 27° (NNE) 2,579 10.2 18.8°
Drops below altitude 10° 13:39:00 10° 45° (NE) 2,691 10.5 19.1°
Sets 13:43:52 0° 78° (ENE) 3,657 11.6 19.8°
